Location: Ch�tillon
(48.8024°N, 2.2935°E)
Time: 17:20:50
(UTC+00:00)

RS-15 - Pass Details

Date: 01 July 2022
Orbit: 1881 x 2163 km, 64.8° (Epoch: 11 August)

Event Time Altitude Azimuth Distance (km) Brightness Sun altitude
Rises 23:06:04 0° 320° (NW) 5,698 11.6 -17.3°
Reaches altitude 10° 23:09:32 10° 320° (NW) 4,693 10.9 -17.4°
Maximum altitude 23:21:58 84° 235° (SW) 2,153 8.1 -17.8°
Enters shadow 23:31:42 18° 150° (SSE) 3,905 9.1 -18.0°
